Location: Newark
(40.3500°N, 15.2333°E)
Time: 15:12:42
(UTC+00:00)

Altair - Pass Details

Date: 25 January 2020
Orbit: 1502 x 1682 km, 47.2° (Epoch: 24 February)

Event Time Altitude Azimuth Distance (km) Brightness Sun altitude
Rises 07:46:23 0° 238° (WSW) 4,863 9.9 13.9°
Reaches altitude 10° 07:49:29 10° 238° (WSW) 3,896 9.5 14.3°
Maximum altitude 07:59:34 89° 151° (SSE) 1,683 8.1 15.7°
Drops below altitude 10° 08:09:48 10° 63° (ENE) 3,943 9.9 17.1°
Sets 08:12:58 0° 63° (ENE) 4,925 10.4 17.6°
